period_start,C,m1,H,J0,J1,J2,J3,J4,J5,JA,JB,JC,JD,JJ,JK,JN,#
2016-07-03 00:03:00,-0.00,0.21,0.00,19.97,26.02,29.69,14.84,47.73,1020.02,2044.04,3481.01,3043.99,3456.18,599.81,603.94,19.80,0000 0000 0000 0000 000000
2016-07-03 00:08:01,0.00,0.21,0.00,19.96,26.02,29.66,14.79,47.77,1020.00,2044.03,3481.00,3043.99,3456.12,599.63,603.79,19.85,0000 0000 0000 0000 000000
2016-07-03 00:13:03,0.00,0.21,0.00,19.96,26.01,29.65,14.82,47.62,1019.90,2044.07,3481.00,3043.99,3456.16,600.03,604.20,19.90,0000 0000 0000 0000 000000
2016-07-03 00:18:04,0.00,0.21,0.00,19.99,26.00,29.66,14.86,47.67,1019.81,2044.06,3481.00,3043.99,3456.09,600.34,604.39,19.96,0000 0000 0000 0000 000000
2016-07-03 00:23:05,0.00,0.21,0.00,19.97,26.00,29.67,14.81,47.59,1019.78,2044.06,3480.96,3043.94,3456.01,599.87,603.90,20.01,0000 0000 0000 0000 000000
2016-07-03 00:28:06,-0.00,0.21,0.00,19.98,26.00,29.68,14.88,47.67,1019.62,2044.05,3480.98,3043.93,3456.00,599.96,603.87,20.06,0000 0000 0000 0000 000000
2016-07-03 00:33:08,0.01,0.21,0.00,20.00,26.00,29.67,14.90,47.89,1019.57,2044.07,3480.89,3043.83,3456.00,600.13,604.03,20.11,0000 0000 0000 0000 000000
2016-07-03 00:38:09,-0.00,0.21,0.00,20.00,26.00,29.69,14.86,47.73,1019.57,2044.09,3480.95,3043.89,3456.00,600.07,603.92,20.16,0000 0000 0000 0000 000000
2016-07-03 00:43:11,-0.00,0.21,0.00,19.97,26.00,29.63,14.82,47.60,1019.57,2044.11,3480.98,3043.95,3456.00,600.20,604.17,20.21,0000 0000 0000 0000 000000
2016-07-03 00:48:12,0.05,0.21,0.00,19.94,26.00,29.63,14.84,47.58,1019.56,2044.14,3480.46,3043.45,3455.54,600.18,604.07,20.26,0000 0000 0000 0000 000000
2016-07-03 00:53:13,0.00,0.21,0.00,19.96,26.00,29.65,14.81,47.62,1019.56,2044.13,3479.89,3042.99,3455.01,599.76,603.79,20.31,0000 0000 0000 0000 000000
2016-07-03 00:58:14,0.01,0.21,0.00,19.94,26.00,29.61,14.83,47.91,1019.56,2044.22,3479.94,3042.99,3455.01,600.07,604.06,20.36,0000 0000 0000 0000 000000
2016-07-03 01:03:15,-0.01,0.21,0.00,20.00,26.00,29.66,14.84,47.80,1019.55,2044.12,3479.95,3042.98,3455.01,599.86,603.63,20.41,0000 0000 0000 0000 000000
2016-07-03 01:08:16,0.00,0.21,0.00,19.98,26.00,29.63,14.85,47.76,1019.57,2044.07,3479.93,3042.97,3455.00,599.93,603.97,20.46,0000 0000 0000 0000 000000
2016-07-03 01:13:17,-0.00,0.21,0.00,20.01,26.00,29.65,14.77,47.71,1019.56,2044.04,3479.91,3042.98,3455.00,599.75,603.61,20.51,0000 0000 0000 0000 000000
2016-07-03 01:18:19,-0.00,0.21,0.00,20.04,26.00,29.64,14.82,47.60,1019.55,2044.02,3479.87,3042.97,3455.00,600.14,603.87,20.56,0000 0000 0000 0000 000000
2016-07-03 01:23:20,0.00,0.21,0.00,20.03,26.00,29.66,14.88,47.74,1019.55,2044.00,3479.89,3042.93,3454.99,600.13,603.97,20.61,0000 0000 0000 0000 000000
2016-07-03 01:28:21,-0.00,0.21,0.00,20.06,26.02,29.62,14.81,47.68,1019.56,2044.01,3479.95,3042.95,3454.99,600.01,603.83,20.66,0000 0000 0000 0000 000000
2016-07-03 01:33:22,-0.00,0.21,0.00,20.06,26.02,29.66,14.76,47.66,1019.55,2044.01,3479.95,3042.95,3454.99,599.84,603.60,20.71,0000 0000 0000 0000 000000
2016-07-03 01:38:24,-0.00,0.21,0.00,20.07,26.02,29.60,14.83,47.77,1019.55,2044.01,3479.94,3042.95,3454.99,599.95,603.77,20.76,0000 0000 0000 0000 000000
2016-07-03 01:43:25,0.01,0.21,0.00,20.11,26.02,29.65,14.84,47.72,1019.55,2044.00,3479.79,3042.90,3454.98,600.24,603.85,20.81,0000 0000 0000 0000 000000
2016-07-03 01:48:26,0.00,0.21,0.00,20.08,26.04,29.69,14.86,47.63,1019.55,2044.01,3479.70,3042.85,3454.98,600.07,603.60,20.86,0000 0000 0000 0000 000000
2016-07-03 01:53:27,0.01,0.21,0.00,20.09,26.05,29.63,14.85,47.77,1019.55,2044.00,3479.55,3042.71,3454.98,600.20,603.88,20.91,0000 0000 0000 0000 000000
2016-07-03 01:58:28,0.01,0.21,0.00,20.13,26.05,29.67,14.83,47.73,1019.55,2044.00,3479.26,3042.38,3454.94,599.99,603.55,20.96,0000 0000 0000 0000 000000
2016-07-03 02:03:30,0.01,0.21,0.00,20.14,26.06,29.71,14.90,47.77,1019.55,2044.00,3479.12,3042.19,3454.92,600.28,603.84,21.01,0000 0000 0000 0000 000000
2016-07-03 02:08:31,0.00,0.21,0.00,20.15,26.07,29.71,14.82,47.79,1019.55,2044.00,3479.06,3042.06,3454.74,599.98,603.60,21.06,0000 0000 0000 0000 000000
2016-07-03 02:13:33,0.00,0.21,0.00,20.16,26.07,29.69,14.80,47.71,1019.55,2044.00,3479.10,3042.05,3454.47,600.02,603.59,21.11,0000 0000 0000 0000 000000
2016-07-03 02:18:34,0.00,0.21,0.00,20.18,26.10,29.64,14.82,47.73,1019.55,2044.00,3479.00,3042.01,3454.12,600.01,603.62,21.16,0000 0000 0000 0000 000000
2016-07-03 02:23:35,0.00,0.21,0.00,20.19,26.10,29.66,14.81,47.92,1019.55,2043.99,3479.00,3042.00,3454.00,599.90,603.39,21.21,0000 0000 0000 0000 000000
2016-07-03 02:28:36,0.00,0.21,0.00,20.24,26.11,29.71,14.86,47.71,1019.55,2043.99,3479.00,3042.00,3454.01,600.21,603.63,21.26,0000 0000 0000 0000 000000
2016-07-03 02:33:38,0.00,0.21,0.00,20.24,26.12,29.69,14.77,47.63,1019.53,2043.99,3478.99,3042.00,3454.01,599.84,603.17,21.31,0000 0000 0000 0000 000000
2016-07-03 02:38:39,-0.00,0.21,0.00,20.24,26.13,29.69,14.84,47.88,1019.54,2043.98,3478.96,3041.99,3454.00,600.15,603.67,21.36,0000 0000 0000 0000 000000
2016-07-03 02:43:40,0.01,0.21,0.00,20.24,26.15,29.70,14.79,47.90,1019.54,2043.98,3478.82,3041.98,3454.00,599.51,602.99,21.41,0000 0000 0000 0000 000000
2016-07-03 02:48:41,-0.00,0.22,0.00,20.27,26.16,29.70,14.83,47.66,1019.52,2043.97,3478.67,3041.98,3453.99,599.92,603.15,21.46,0000 0000 0000 0000 000000
2016-07-03 02:53:43,0.02,0.22,0.00,20.31,26.17,29.69,14.83,47.83,1019.48,2043.98,3478.20,3041.72,3453.88,599.89,603.08,21.51,0000 0000 0000 0000 000000
2016-07-03 02:58:44,0.01,0.22,0.00,20.33,26.18,29.74,14.90,47.66,1019.42,2043.94,3478.03,3041.21,3453.45,600.14,603.18,21.56,0000 0000 0000 0000 000000
2016-07-03 03:03:45,0.00,0.22,0.00,20.34,26.20,29.71,14.79,47.95,1019.33,2043.90,3478.01,3041.06,3453.17,599.95,603.01,21.61,0000 0000 0000 0000 000000
2016-07-03 03:08:46,-0.01,0.22,0.00,20.36,26.21,29.73,14.88,47.94,1019.25,2043.75,3478.00,3041.01,3453.03,600.53,603.40,21.66,0000 0000 0000 0000 000000
2016-07-03 03:13:48,-0.01,0.22,0.00,20.44,26.22,29.73,14.80,47.83,1019.34,2043.63,3477.98,3041.01,3453.00,600.17,603.07,21.71,0000 0000 0000 0000 000000
2016-07-03 03:18:49,-0.04,0.21,0.00,20.48,26.25,29.66,14.82,47.85,1019.32,2043.19,3477.97,3040.99,3453.00,600.01,602.85,21.76,0000 0000 0000 0000 000000
2016-07-03 03:23:50,-0.00,0.21,0.00,20.49,26.26,29.82,14.78,47.77,1019.42,2043.06,3477.86,3040.98,3452.98,600.00,602.82,21.81,0000 0000 0000 0000 000000
2016-07-03 03:28:51,0.00,0.21,0.00,20.52,26.28,29.83,14.81,47.83,1019.25,2043.03,3477.36,3040.96,3452.90,600.45,603.11,21.86,0000 0000 0000 0000 000000
2016-07-03 03:33:53,0.01,0.21,0.00,20.56,26.30,29.73,14.80,47.80,1019.12,2043.02,3477.13,3040.85,3452.52,600.03,602.50,21.91,0000 0000 0000 0000 000000
2016-07-03 03:38:54,0.02,0.22,0.00,20.57,26.32,29.76,14.74,47.92,1019.10,2043.00,3477.02,3040.30,3452.04,599.88,602.28,21.96,0000 0000 0000 0000 000000
2016-07-03 03:43:55,0.00,0.22,0.00,20.59,26.34,29.83,14.77,47.92,1019.08,2043.00,3477.00,3040.05,3452.00,600.20,602.66,22.01,0000 0000 0000 0000 000000
2016-07-03 03:48:56,0.00,0.22,0.00,20.64,26.36,29.77,14.73,47.85,1019.07,2042.99,3476.97,3040.01,3452.00,599.91,602.10,22.06,0000 0000 0000 0000 000000
2016-07-03 03:53:57,0.00,0.22,0.00,20.74,26.38,29.75,14.82,47.91,1019.06,2042.97,3476.94,3040.00,3451.98,600.38,602.37,22.11,0000 0000 0000 0000 000000
2016-07-03 03:58:58,0.00,0.22,0.00,20.76,26.41,29.64,14.76,47.82,1019.06,2042.97,3476.61,3039.99,3451.80,599.90,601.99,22.16,0000 0000 0000 0000 000000
2016-07-03 04:04:00,0.01,0.22,0.00,20.78,26.42,29.67,14.71,47.76,1019.06,2042.95,3476.07,3039.94,3451.16,599.81,601.82,22.21,0000 0000 0000 0000 000000
2016-07-03 04:09:01,-0.02,0.22,0.00,20.79,26.45,29.66,14.78,47.90,1019.06,2042.71,3476.01,3039.56,3451.01,600.09,602.21,22.26,0000 0000 0000 0000 000000
2016-07-03 04:14:03,-0.02,0.22,0.00,20.85,26.47,29.70,14.81,47.88,1019.06,2042.23,3475.99,3039.10,3450.99,600.28,602.14,22.31,0000 0000 0000 0000 000000
2016-07-03 04:19:04,-0.00,0.21,0.00,20.90,26.50,29.77,14.77,47.79,1019.05,2042.06,3475.93,3039.01,3450.86,600.28,602.13,22.36,0000 0000 0000 0000 000000
2016-07-03 04:24:05,0.01,0.21,0.00,20.94,26.52,29.69,14.77,47.62,1018.98,2042.01,3475.48,3038.99,3450.41,599.96,601.65,22.41,0000 0000 0000 0000 000000
2016-07-03 04:29:07,0.01,0.22,0.00,21.80,26.55,29.85,14.62,47.59,1018.93,2042.00,3475.04,3038.85,3450.04,599.99,599.86,22.46,0000 0000 0000 0000 000000
2016-07-03 04:34:08,0.02,0.22,0.00,22.58,26.59,29.88,14.57,47.51,1018.86,2042.00,3475.01,3038.17,3450.00,600.06,598.24,22.51,0000 0000 0000 0000 000000
2016-07-03 04:39:09,0.01,0.22,0.00,22.93,26.65,29.77,14.58,47.26,1018.68,2041.97,3474.99,3037.99,3449.50,600.10,597.49,22.56,0000 0000 0000 0000 000000
2016-07-03 04:44:11,-0.03,0.22,0.00,23.17,26.72,29.71,14.48,47.26,1018.64,2041.42,3474.40,3037.52,3449.00,599.89,596.75,22.61,0000 0000 0000 0000 000000
2016-07-03 04:49:12,0.00,0.22,0.00,23.23,26.79,29.74,14.53,47.15,1018.61,2041.01,3473.99,3037.01,3448.42,600.64,597.37,22.66,0000 0000 0000 0000 000000
2016-07-03 04:54:13,0.02,0.22,0.00,23.33,26.87,29.81,14.51,47.13,1018.61,2040.99,3473.45,3036.67,3447.98,600.07,596.70,22.71,0000 0000 0000 0000 000000
2016-07-03 04:59:15,-0.01,0.22,0.00,23.42,26.94,29.89,14.43,47.16,1018.62,2040.75,3473.00,3036.03,3447.22,599.67,595.90,22.76,0000 0000 0000 0000 000000
2016-07-03 05:04:16,-0.01,0.22,0.00,23.46,27.02,29.98,14.43,47.06,1018.63,2040.09,3472.45,3035.61,3446.80,599.92,596.25,22.81,0000 0000 0000 0000 000000
2016-07-03 05:09:17,0.01,0.22,0.00,23.40,27.10,30.09,14.51,47.02,1018.67,2040.00,3472.00,3035.02,3446.04,600.09,596.59,22.86,0000 0000 0000 0000 000000
2016-07-03 05:14:18,0.02,0.22,0.00,23.34,27.18,30.18,14.47,47.01,1018.64,2039.89,3471.47,3034.60,3445.63,599.78,596.32,22.91,0000 0000 0000 0000 000000
2016-07-03 05:19:19,-0.05,0.22,0.00,23.53,27.25,30.22,14.45,47.00,1018.64,2039.15,3470.94,3034.01,3444.98,599.53,595.69,22.96,0000 0000 0000 0000 000000
2016-07-03 05:24:21,0.04,0.22,0.00,23.60,27.33,30.28,14.50,47.01,1018.68,2039.00,3470.16,3033.34,3444.17,599.96,595.99,23.01,0000 0000 0000 0000 000000
2016-07-03 05:29:22,-0.02,0.22,0.00,23.58,27.40,30.36,14.47,47.14,1018.77,2038.81,3469.87,3032.97,3443.77,600.26,596.42,23.06,0000 0000 0000 0000 000000
2016-07-03 05:34:23,-0.01,0.22,0.00,23.64,27.47,30.42,14.41,47.04,1018.85,2038.09,3469.09,3032.36,3443.03,599.66,595.76,23.11,0000 0000 0000 0000 000000
2016-07-03 05:39:25,0.02,0.22,0.00,23.71,27.53,30.45,14.48,47.06,1018.94,2038.00,3468.73,3031.99,3442.49,599.90,595.97,23.16,0000 0000 0000 0000 000000
2016-07-03 05:44:26,0.02,0.22,0.00,23.67,27.60,30.52,14.51,47.15,1018.84,2037.94,3468.09,3031.56,3442.00,600.34,596.36,23.21,0000 0000 0000 0000 000000
2016-07-03 05:49:27,-0.04,0.22,0.00,23.58,27.66,30.58,14.46,47.13,1018.81,2037.47,3467.95,3031.02,3441.77,600.10,596.25,23.26,0000 0000 0000 0000 000000
2016-07-03 05:54:29,0.00,0.22,0.00,23.72,27.72,30.60,14.49,47.17,1018.93,2037.03,3467.17,3030.81,3441.05,600.08,595.96,23.31,0000 0000 0000 0000 000000
2016-07-03 05:59:30,0.02,0.22,0.00,23.74,27.77,30.66,14.45,47.12,1018.97,2037.00,3467.00,3030.08,3440.88,599.77,595.70,23.36,0000 0000 0000 0000 000000
2016-07-03 06:04:32,0.01,0.22,0.00,23.77,27.82,30.69,14.54,47.07,1019.00,2036.98,3466.63,3030.00,3440.13,600.31,595.99,23.41,0000 0000 0000 0000 000000
2016-07-03 06:09:33,-0.03,0.22,0.00,23.83,27.88,30.72,14.57,47.17,1019.00,2036.69,3466.04,3029.73,3439.99,600.51,596.32,23.46,0000 0000 0000 0000 000000
2016-07-03 06:14:35,-0.00,0.22,0.00,23.84,27.92,30.76,14.45,47.07,1019.01,2036.07,3465.56,3029.04,3439.31,599.81,595.59,23.51,0000 0000 0000 0000 000000
2016-07-03 06:19:36,0.00,0.22,0.00,23.87,27.97,30.80,14.50,47.05,1018.92,2036.00,3465.04,3028.95,3439.00,599.95,595.73,23.56,0000 0000 0000 0000 000000
2016-07-03 06:24:37,0.02,0.22,0.00,23.88,28.01,30.83,14.52,47.07,1018.69,2036.00,3465.00,3028.52,3438.85,600.28,595.68,23.61,0000 0000 0000 0000 000000
2016-07-03 06:29:39,0.02,0.22,0.00,23.77,28.05,30.91,14.47,47.13,1018.64,2035.96,3464.62,3028.03,3438.12,599.83,595.55,23.66,0000 0000 0000 0000 000000
2016-07-03 06:34:40,-0.03,0.22,0.00,23.85,28.09,30.92,14.52,47.17,1018.62,2035.68,3464.05,3027.99,3437.99,600.29,595.75,23.71,0000 0000 0000 0000 000000
2016-07-03 06:39:41,-0.02,0.22,0.00,23.90,28.12,30.93,14.51,47.02,1018.68,2035.10,3463.98,3027.72,3437.66,599.89,595.37,23.77,0000 0000 0000 0000 000000
2016-07-03 06:44:43,0.02,0.22,0.00,23.96,28.16,30.94,14.45,47.03,1018.80,2035.00,3463.66,3027.06,3437.04,599.89,595.36,23.82,0000 0000 0000 0000 000000
2016-07-03 06:49:44,0.00,0.22,0.00,23.98,28.18,30.95,14.47,46.96,1018.91,2035.00,3463.12,3027.00,3437.00,600.22,595.74,23.87,0000 0000 0000 0000 000000
2016-07-03 06:54:45,0.00,0.22,0.00,23.97,28.21,30.99,14.54,47.09,1018.98,2034.99,3463.00,3026.95,3436.76,600.29,595.72,23.92,0000 0000 0000 0000 000000
2016-07-03 06:59:46,0.02,0.22,0.00,24.01,28.24,31.01,14.55,47.10,1018.96,2034.95,3462.95,3026.46,3436.12,599.94,595.46,23.97,0000 0000 0000 0000 000000
2016-07-03 07:04:47,-0.02,0.22,0.00,24.07,28.27,31.02,14.44,47.01,1019.01,2034.68,3462.54,3026.06,3436.00,599.98,595.26,24.02,0000 0000 0000 0000 000000
2016-07-03 07:09:49,-0.02,0.22,0.00,24.11,28.30,31.03,14.50,47.04,1019.01,2034.14,3462.03,3026.00,3435.96,599.88,595.08,24.07,0000 0000 0000 0000 000000
2016-07-03 07:14:50,0.00,0.22,0.00,24.14,28.32,31.05,14.54,46.83,1019.04,2034.03,3461.99,3025.97,3435.51,600.43,595.55,24.12,0000 0000 0000 0000 000000
2016-07-03 07:19:51,0.00,0.22,0.00,24.18,28.34,31.07,14.48,46.86,1019.04,2034.01,3461.97,3025.88,3435.05,599.80,594.81,24.17,0000 0000 0000 0000 000000
2016-07-03 07:24:52,0.02,0.22,0.00,24.21,28.36,31.09,14.53,46.91,1019.02,2034.00,3461.69,3025.34,3435.00,600.14,595.11,24.22,0000 0000 0000 0000 000000
2016-07-03 07:29:54,0.00,0.22,0.00,24.22,28.38,31.09,14.48,46.87,1018.98,2034.00,3461.10,3025.03,3435.00,600.03,595.06,24.27,0000 0000 0000 0000 000000
2016-07-03 07:34:55,0.00,0.22,0.00,24.25,28.40,31.09,14.45,46.90,1018.91,2034.00,3461.02,3025.00,3434.98,599.61,594.56,24.32,0000 0000 0000 0000 000000
2016-07-03 07:39:56,0.00,0.22,0.00,24.28,28.42,31.11,14.45,46.92,1018.80,2033.99,3461.00,3025.00,3434.75,600.00,594.92,24.37,0000 0000 0000 0000 000000
2016-07-03 07:44:57,0.00,0.22,0.00,24.31,28.43,31.11,14.45,47.03,1018.82,2033.97,3460.98,3024.99,3434.11,599.95,594.65,24.42,0000 0000 0000 0000 000000
2016-07-03 07:49:59,0.00,0.22,0.00,24.35,28.45,31.13,14.46,46.75,1018.98,2033.91,3460.82,3024.82,3434.02,600.13,594.83,24.47,0000 0000 0000 0000 000000
2016-07-03 07:55:00,0.01,0.22,0.00,24.36,28.46,31.13,14.43,46.83,1018.93,2033.71,3460.37,3024.46,3434.00,599.91,594.61,24.52,0000 0000 0000 0000 000000
2016-07-03 08:00:00,0.00,0.22,0.00,24.39,28.47,31.14,14.47,46.92,1018.79,2033.71,3460.11,3024.30,3434.00,599.98,594.55,24.57,0000 0000 0000 0000 000000
2016-07-03 08:05:01,-0.02,0.22,0.00,24.40,28.49,31.14,14.48,46.92,1018.92,2033.60,3460.05,3024.15,3433.99,600.12,594.50,24.62,0000 0000 0000 0000 000000
2016-07-03 08:10:03,-0.01,0.22,0.00,24.42,28.50,31.15,14.40,46.88,1018.91,2033.27,3460.00,3024.01,3433.92,599.97,594.52,24.67,0000 0000 0000 0000 000000
2016-07-03 08:15:04,-0.01,0.22,0.00,24.47,28.51,31.13,14.42,46.83,1018.71,2033.15,3460.00,3024.00,3433.59,600.06,594.39,24.72,0000 0000 0000 0000 000000
2016-07-03 08:20:05,0.03,0.22,0.00,24.49,28.52,31.16,14.47,46.79,1018.60,2033.06,3459.72,3023.75,3432.87,599.89,594.13,24.77,0000 0000 0000 0000 000000
2016-07-03 08:25:07,0.05,0.22,0.00,24.52,28.54,31.15,14.47,46.97,1018.59,2033.01,3458.39,3022.66,3431.99,600.19,594.16,24.82,0000 0000 0000 0000 000000
2016-07-03 08:30:08,0.01,0.22,0.00,24.55,28.55,31.16,14.51,46.90,1018.59,2033.00,3458.07,3022.13,3431.60,600.13,594.26,24.87,0000 0000 0000 0000 000000
2016-07-03 08:35:09,0.00,0.22,0.00,24.55,28.56,31.17,14.45,46.78,1018.59,2033.00,3458.00,3022.01,3431.18,600.01,594.08,24.92,0000 0000 0000 0000 000000
2016-07-03 08:40:10,0.00,0.22,0.00,24.59,28.57,31.18,14.46,46.96,1018.60,2033.00,3458.00,3022.00,3431.04,600.16,594.13,24.97,0000 0000 0000 0000 000000
2016-07-03 08:45:12,0.03,0.22,0.00,24.60,28.59,31.19,14.43,47.04,1018.68,2033.00,3457.65,3021.69,3430.69,600.02,594.07,25.02,0000 0000 0000 0000 000000
2016-07-03 08:50:13,0.02,0.23,0.00,24.61,28.60,31.21,14.40,47.02,1018.67,2033.00,3457.00,3021.01,3430.01,599.90,593.85,25.07,0000 0000 0000 0000 000000
2016-07-03 08:55:14,0.00,0.23,0.00,24.62,28.61,31.21,14.49,47.13,1018.71,2032.99,3456.98,3021.00,3429.99,599.68,593.68,25.12,0000 0000 0000 0000 000000
2016-07-03 09:00:15,0.00,0.23,0.00,24.64,28.62,31.22,14.45,46.97,1018.78,2032.99,3456.93,3021.00,3429.98,599.95,594.01,25.17,0000 0000 0000 0000 000000
2016-07-03 09:05:16,0.00,0.23,0.00,24.65,28.63,31.25,14.37,46.88,1018.65,2032.99,3456.87,3020.99,3429.94,600.20,594.03,25.22,0000 0000 0000 0000 000000
2016-07-03 09:10:17,0.02,0.23,0.00,24.66,28.65,31.25,14.41,46.80,1018.59,2032.95,3456.31,3020.87,3429.54,599.79,593.66,25.27,0000 0000 0000 0000 000000
2016-07-03 09:15:19,0.00,0.23,0.00,24.68,28.65,31.25,14.44,46.97,1018.58,2032.88,3456.02,3020.54,3429.06,600.19,593.93,25.32,0000 0000 0000 0000 000000
2016-07-03 09:20:20,-0.01,0.23,0.00,24.71,28.66,31.27,14.46,46.99,1018.58,2032.80,3456.00,3020.19,3429.01,600.05,593.86,25.37,0000 0000 0000 0000 000000
2016-07-03 09:25:21,-0.02,0.23,0.00,24.73,28.67,31.27,14.40,46.98,1018.57,2032.51,3456.00,3020.05,3429.00,600.08,593.78,25.42,0000 0000 0000 0000 000000
2016-07-03 09:30:22,-0.01,0.23,0.00,24.75,28.67,31.28,14.45,46.86,1018.57,2032.28,3456.00,3020.01,3429.00,600.01,593.68,25.47,0000 0000 0000 0000 000000
2016-07-03 09:35:24,-0.01,0.23,0.00,24.77,28.69,31.28,14.37,46.97,1018.57,2032.14,3455.98,3020.00,3428.99,599.90,593.42,25.52,0000 0000 0000 0000 000000
2016-07-03 09:40:25,-0.00,0.23,0.00,24.80,28.70,31.29,14.47,46.95,1018.57,2032.09,3455.92,3020.00,3428.96,600.00,593.63,25.57,0000 0000 0000 0000 000000
2016-07-03 09:45:26,0.02,0.23,0.00,24.82,28.70,31.29,14.45,46.93,1018.57,2032.06,3455.49,3019.82,3428.70,600.29,593.79,25.62,0000 0000 0000 0000 000000
2016-07-03 09:50:28,0.03,0.23,0.00,24.85,28.71,31.29,14.34,46.88,1018.59,2032.01,3454.97,3019.04,3427.81,599.80,593.27,25.67,0000 0000 0000 0000 000000
2016-07-03 09:55:29,0.00,0.23,0.00,24.87,28.72,31.30,14.34,46.83,1018.58,2032.01,3454.82,3018.99,3427.37,600.21,593.64,25.72,0000 0000 0000 0000 000000
2016-07-03 10:00:30,0.01,0.23,0.00,24.90,28.72,31.30,14.42,46.98,1018.57,2032.00,3454.42,3018.99,3427.21,600.05,593.44,25.77,0000 0000 0000 0000 000000
2016-07-03 10:05:31,0.00,0.23,0.00,24.92,28.74,31.32,14.46,46.93,1018.57,2032.00,3454.09,3018.93,3427.04,600.20,593.43,25.82,0000 0000 0000 0000 000000
2016-07-03 10:10:33,0.00,0.23,0.00,24.94,28.75,31.32,14.41,46.92,1018.57,2032.00,3454.03,3018.87,3427.00,600.08,593.43,25.87,0000 0000 0000 0000 000000
2016-07-03 10:15:34,0.00,0.23,0.00,24.96,28.75,31.33,14.32,46.92,1018.57,2032.00,3454.03,3018.79,3427.01,599.87,593.06,25.92,0000 0000 0000 0000 000000
2016-07-03 10:20:35,0.09,0.23,0.00,24.99,28.77,31.35,14.32,46.92,1018.56,2032.00,3452.95,3017.69,3426.18,599.52,592.79,25.97,0000 0000 0000 0000 000000
2016-07-03 10:25:36,0.11,0.24,0.00,25.01,28.77,31.35,14.42,46.85,1018.55,2032.00,3449.65,3015.98,3424.19,599.76,592.95,26.02,0000 0000 0000 0000 000000
2016-07-03 10:30:37,0.05,0.24,0.00,25.03,28.78,31.36,14.37,46.78,1018.49,2032.00,3448.16,3015.04,3423.10,599.66,592.78,26.07,0000 0000 0000 0000 000000
2016-07-03 10:35:39,0.01,0.24,0.00,25.06,28.80,31.36,14.40,46.85,1018.49,2032.00,3447.83,3014.86,3422.95,600.15,593.21,26.12,0000 0000 0000 0000 000000
2016-07-03 10:40:40,0.04,0.25,0.00,25.07,28.80,31.36,14.38,46.83,1018.44,2032.00,3447.11,3014.25,3422.34,600.10,593.07,26.17,0000 0000 0000 0000 000000
2016-07-03 10:45:41,-0.00,0.25,0.00,25.08,28.82,31.36,14.37,46.71,1018.54,2031.99,3447.00,3014.00,3422.01,599.84,592.87,26.22,0000 0000 0000 0000 000000
2016-07-03 10:50:42,0.00,0.25,0.00,25.10,28.82,31.37,14.37,46.66,1018.57,2031.99,3446.88,3014.00,3422.00,599.93,593.05,26.27,0000 0000 0000 0000 000000
2016-07-03 10:55:44,0.01,0.25,0.00,25.11,28.84,31.38,14.35,46.74,1018.57,2031.99,3446.17,3013.99,3421.98,599.93,592.93,26.32,0000 0000 0000 0000 000000
2016-07-03 11:00:45,0.00,0.25,0.00,25.13,28.85,31.41,14.42,46.65,1018.53,2031.95,3446.00,3013.88,3421.71,599.90,592.80,26.37,0000 0000 0000 0000 000000
2016-07-03 11:05:46,0.03,0.25,0.00,25.16,28.87,31.43,14.42,46.77,1018.54,2031.94,3445.97,3013.19,3421.07,600.18,592.96,26.42,0000 0000 0000 0000 000000
2016-07-03 11:10:48,0.00,0.25,0.00,25.17,28.87,31.48,14.36,46.73,1018.57,2031.95,3445.94,3013.05,3421.00,599.72,592.62,26.47,0000 0000 0000 0000 000000
2016-07-03 11:15:49,-0.00,0.25,0.00,25.20,28.90,31.50,14.35,46.83,1018.52,2031.85,3445.58,3013.01,3421.00,599.62,592.58,26.52,0000 0000 0000 0000 000000
2016-07-03 11:20:50,-0.02,0.25,0.00,25.22,28.90,31.52,14.38,46.74,1018.42,2031.60,3445.14,3013.00,3420.99,600.31,592.90,26.57,0000 0000 0000 0000 000000
2016-07-03 11:25:52,-0.02,0.25,0.00,25.24,28.92,31.54,14.35,46.63,1018.23,2031.27,3445.00,3013.00,3420.89,599.97,592.42,26.62,0000 0000 0000 0000 000000
2016-07-03 11:30:53,-0.00,0.25,0.00,25.25,28.93,31.55,14.35,46.67,1018.27,2031.16,3445.00,3012.98,3420.57,600.10,592.68,26.67,0000 0000 0000 0000 000000
2016-07-03 11:35:54,0.00,0.25,0.00,25.27,28.95,31.54,14.33,46.80,1018.26,2031.08,3444.99,3012.92,3420.11,599.84,592.51,26.72,0000 0000 0000 0000 000000
2016-07-03 11:40:55,0.01,0.25,0.00,25.28,28.95,31.55,14.40,46.63,1018.26,2031.04,3444.92,3012.61,3420.03,600.25,592.54,26.77,0000 0000 0000 0000 000000
2016-07-03 11:45:57,0.01,0.25,0.00,25.29,28.97,31.56,14.37,46.73,1018.14,2031.01,3444.57,3012.14,3420.00,599.81,592.18,26.82,0000 0000 0000 0000 000000
2016-07-03 11:50:58,0.00,0.25,0.00,25.29,28.97,31.56,14.38,46.68,1018.10,2031.00,3444.36,3012.10,3420.00,600.10,592.38,26.87,0000 0000 0000 0000 000000
2016-07-03 11:55:59,0.00,0.25,0.00,25.27,28.99,31.57,14.36,46.63,1018.09,2031.00,3444.02,3012.01,3419.99,599.81,592.17,26.92,0000 0000 0000 0000 000000
2016-07-03 12:01:00,0.00,0.25,0.00,25.26,29.00,31.59,14.35,46.63,1018.08,2031.00,3444.00,3012.00,3419.97,600.07,592.38,26.97,0000 0000 0000 0000 000000
2016-07-03 12:06:02,0.00,0.25,0.00,25.24,29.00,31.61,14.35,46.70,1018.08,2031.00,3444.00,3012.00,3419.97,600.15,592.48,27.02,0000 0000 0000 0000 000000
2016-07-03 12:11:03,0.00,0.25,0.00,25.21,29.00,31.61,14.37,46.79,1018.08,2031.00,3443.99,3012.00,3419.83,600.39,592.92,27.07,0000 0000 0000 0000 000000
2016-07-03 12:16:04,-0.00,0.25,0.00,25.20,29.00,31.63,14.38,46.66,1018.08,2031.00,3443.99,3011.99,3419.57,600.33,592.87,27.12,0000 0000 0000 0000 000000
2016-07-03 12:21:05,-0.00,0.25,0.00,25.19,29.00,31.63,14.36,46.68,1018.08,2031.00,3443.98,3011.99,3419.60,600.10,592.68,27.17,0000 0000 0000 0000 000000
2016-07-03 12:26:06,0.00,0.25,0.00,25.17,29.00,31.62,14.47,46.76,1018.05,2031.00,3443.94,3011.99,3419.34,599.99,592.40,27.22,0000 0000 0000 0000 000000
2016-07-03 12:31:07,0.00,0.25,0.00,25.17,29.00,31.62,14.32,46.76,1017.96,2031.00,3443.86,3011.99,3419.15,599.82,592.31,27.27,0000 0000 0000 0000 000000
2016-07-03 12:36:08,0.00,0.25,0.00,25.15,29.00,31.63,14.37,46.71,1017.99,2030.99,3443.69,3011.98,3419.06,599.63,592.07,27.32,0000 0000 0000 0000 000000
2016-07-03 12:41:10,0.01,0.25,0.00,25.15,29.00,31.63,14.37,46.71,1017.90,2030.98,3443.17,3011.97,3419.01,599.90,592.23,27.37,0000 0000 0000 0000 000000
2016-07-03 12:46:11,0.00,0.25,0.00,25.15,29.00,31.62,14.41,46.74,1017.70,2030.99,3443.07,3011.95,3419.01,600.26,592.53,27.42,0000 0000 0000 0000 000000
2016-07-03 12:51:12,0.00,0.25,0.00,25.15,29.00,31.61,14.36,46.77,1017.61,2030.98,3443.04,3011.92,3419.00,599.97,592.30,27.47,0000 0000 0000 0000 000000
2016-07-03 12:56:13,0.00,0.25,0.00,25.15,29.00,31.62,14.31,46.77,1017.61,2030.99,3443.02,3011.87,3419.00,599.51,591.81,27.52,0000 0000 0000 0000 000000